GW5874 Weather Reports


time (UTC)temp
C
wind
direction
speed
KPH
gust
KPH
rain 1hr
cm
rain 24hr
cm
rain mn
cm
humidity
%
barometer
mb
20260504050519 19 197 4.8 6.4 0.00 0.00 0.00 55 1011.6
20260504050016 19 218 4.8 4.8 0.00 0.00 0.00 54 1011.4
20260504045513 19 225 8.0 11.3 0.00 0.00 0.00 55 1011.5
20260504045008 19 198 8.0 11.3 0.00 0.00 0.00 55 1011.6
20260504044506 19 248 3.2 6.4 0.00 0.00 0.00 54 1011.7
20260504044003 19 203 3.2 6.4 0.00 0.00 0.00 54 1011.6
20260504043500 19 232 4.8 6.4 0.00 0.00 0.00 54 1011.6
20260504042958 19 179 3.2 4.8 0.00 0.00 0.00 54 1011.8
20260504042454 19 267 3.2 4.8 0.00 0.00 0.00 54 1011.6
20260504041951 19 257 6.4 8.0 0.00 0.00 0.00 53 1011.6
20260504041447 19 200 3.2 4.8 0.00 0.00 0.00 53 1011.6
20260504040943 19 245 4.8 6.4 0.00 0.00 0.00 53 1011.6
20260504040441 20 214 3.2 6.4 0.00 0.00 0.00 53 1011.8
20260504035936 20 210 6.4 8.0 0.00 0.00 0.00 53 1011.8
20260504035434 20 245 4.8 4.8 0.00 0.00 0.00 53 1011.7
20260504034931 20 222 6.4 6.4 0.00 0.00 0.00 52 1011.7
20260504034428 20 188 8.0 8.0 0.00 0.00 0.00 52 1011.7
20260504033925 20 200 4.8 6.4 0.00 0.00 0.00 53 1011.7
20260504033423 19 220 8.0 8.0 0.00 0.00 0.00 53 1011.8
20260504032920 19 204 1.6 4.8 0.00 0.00 0.00 53 1011.7
20260504032417 19 218 1.6 1.6 0.00 0.00 0.00 53 1011.7
20260504031913 19 240 1.6 1.6 0.00 0.00 0.00 53 1011.8
20260504031411 19 211 4.8 6.4 0.00 0.00 0.00 54 1011.8
20260504030907 19 222 3.2 4.8 0.00 0.00 0.00 53 1011.7
20260504030404 19 224 0.0 1.6 0.00 0.00 0.00 53 1011.9
20260504025900 20 243 1.6 1.6 0.00 0.00 0.00 53 1011.9
20260504025357 20 233 1.6 1.6 0.00 0.00 0.00 53 1011.6
20260504024854 20 227 6.4 11.3 0.00 0.00 0.00 52 1011.7
20260504024350 20 190 3.2 4.8 0.00 0.00 0.00 53 1011.7
20260504023848 20 179 3.2 4.8 0.00 0.00 0.00 54 1011.6
20260504023344 20 203 3.2 4.8 0.00 0.00 0.00 54 1011.6
20260504022839 20 233 3.2 4.8 0.00 0.00 0.00 56 1011.4
20260504022337 20 174 3.2 4.8 0.00 0.00 0.00 56 1011.5
20260504021833 19 235 0.0 0.0 0.00 0.00 0.00 57 1011.5
20260504021331 19 202 1.6 1.6 0.00 0.00 0.00 58 1011.5
20260504020828 19 163 4.8 6.4 0.00 0.00 0.00 58 1011.3
20260504020324 19 221 0.0 0.0 0.00 0.00 0.00 59 1011.4
20260504015820 19 218 0.0 0.0 0.00 0.00 0.00 58 1011.3
20260504015317 20 206 0.0 1.6 0.00 0.00 0.00 58 1011.3
20260504014813 20 206 1.6 1.6 0.00 0.00 0.00 59 1011.2
20260504014309 20 214 1.6 1.6 0.00 0.00 0.00 54 1011.4
20260504013807 20 189 3.2 4.8 0.00 0.00 0.00 54 1011.2
20260504013305 21 223 0.0 0.0 0.00 0.00 0.00 54 1011.2
20260504012800 21 197 3.2 4.8 0.00 0.00 0.00 53 1011.4
20260504012259 21 212 1.6 1.6 0.00 0.00 0.00 52 1011.1
20260504011755 22 192 3.2 4.8 0.00 0.00 0.00 50 1011.4
20260504011252 22 225 0.0 0.0 0.00 0.00 0.00 49 1011.3
20260504010748 22 213 1.6 4.8 0.00 0.00 0.00 49 1011.1
20260504010244 22 217 1.6 1.6 0.00 0.00 0.00 48 1011.1
20260504005741 22 219 3.2 4.8 0.00 0.00 0.00 47 1011.2
20260504005238 22 201 1.6 1.6 0.00 0.00 0.00 47 1011.1
20260504004736 23 166 1.6 1.6 0.00 0.00 0.00 46 1011.2
20260504004232 23 198 6.4 8.0 0.00 0.00 0.00 45 1011.1
20260504003729 23 202 4.8 6.4 0.00 0.00 0.00 44 1011.2
20260504003226 23 165 3.2 4.8 0.00 0.00 0.00 44 1011.2
20260504002723 24 227 3.2 6.4 0.00 0.00 0.00 43 1011.2
20260504002219 24 241 4.8 8.0 0.00 0.00 0.00 43 1011.3
20260504001718 25 230 6.4 8.0 0.00 0.00 0.00 41 1011.2
20260504001214 25 191 4.8 6.4 0.00 0.00 0.00 41 1011.2
20260504000711 25 179 6.4 6.4 0.00 0.00 0.00 40 1011.4
20260504000208 25 253 4.8 6.4 0.00 0.00 0.00 40 1011.5
20260503235706 25 216 8.0 8.0 0.00 0.00 0.00 38 1011.5
20260503235203 25 179 8.0 8.0 0.00 0.00 0.00 39 1011.6
20260503234700 26 260 3.2 4.8 0.00 0.00 0.00 38 1011.8
20260503234159 26 217 6.4 11.3 0.00 0.00 0.00 38 1011.9
20260503233655 25 330 3.2 4.8 0.00 0.00 0.00 39 1011.7
20260503233151 25 281 0.0 0.0 0.00 0.00 0.00 37 1011.9
20260503232648 25 269 0.0 1.6 0.00 0.00 0.00 38 1012.0
20260503232145 25 271 1.6 1.6 0.00 0.00 0.00 37 1012.0
20260503231643 26 317 1.6 1.6 0.00 0.00 0.00 36 1012.0
20260503231139 26 264 0.0 1.6 0.00 0.00 0.00 35 1012.0
20260503230636 26 271 4.8 6.4 0.00 0.00 0.00 36 1012.0
20260503230134 26 259 6.4 8.0 0.00 0.00 0.00 33 1012.0
20260503225631 26 194 6.4 8.0 0.00 0.00 0.00 32 1012.2
20260503225130 26 241 1.6 1.6 0.00 0.00 0.00 32 1011.9
20260503224628 26 270 4.8 8.0 0.00 0.00 0.00 32 1012.1
20260503224126 27 222 4.8 6.4 0.00 0.00 0.00 30 1012.1
20260503223624 27 284 3.2 6.4 0.00 0.00 0.00 29 1012.1
20260503223119 27 302 6.4 6.4 0.00 0.00 0.00 31 1012.1
20260503222617 27 276 4.8 8.0 0.00 0.00 0.00 30 1012.2
20260503222115 27 277 1.6 1.6 0.00 0.00 0.00 35 1012.2
20260503221613 28 203 4.8 6.4 0.00 0.00 0.00 34 1012.0
20260503221110 28 262 1.6 1.6 0.00 0.00 0.00 36 1012.2
20260503220607 27 233 6.4 8.0 0.00 0.00 0.00 36 1012.1
20260503220103 27 222 1.6 1.6 0.00 0.00 0.00 37 1012.3
20260503215600 26 161 11.3 16.1 0.00 0.00 0.00 34 1012.4
20260503215057 27 241 9.7 16.1 0.00 0.00 0.00 36 1012.5
20260503214555 27 207 4.8 6.4 0.00 0.00 0.00 36 1012.4
20260503214051 27 274 3.2 6.4 0.00 0.00 0.00 33 1012.5
20260503213550 28 256 8.0 11.3 0.00 0.00 0.00 34 1012.7
20260503213046 27 268 0.0 1.6 0.00 0.00 0.00 39 1012.7
20260503212544 26 188 9.7 16.1 0.00 0.00 0.00 35 1012.7
20260503212042 27 231 16.1 24.1 0.00 0.00 0.00 33 1013.1
20260503211538 27 203 4.8 11.3 0.00 0.00 0.00 38 1012.8
20260503211033 27 266 1.6 1.6 0.00 0.00 0.00 41 1013.1
20260503210531 27 249 4.8 6.4 0.00 0.00 0.00 35 1013.3
20260503210026 27 269 3.2 4.8 0.00 0.00 0.00 39 1013.3
20260503205523 27 282 3.2 6.4 0.00 0.00 0.00 38 1013.2
20260503205020 27 229 3.2 4.8 0.00 0.00 0.00 40 1013.4
20260503204517 26 236 11.3 17.7 0.00 0.00 0.00 37 1013.6
20260503204014 27 243 11.3 16.1 0.00 0.00 0.00 36 1013.5
20260503203511 27 184 17.7 19.3 0.00 0.00 0.00 38 1013.7
20260503203008 27 270 3.2 4.8 0.00 0.00 0.00 40 1013.8
20260503202506 26 267 1.6 1.6 0.00 0.00 0.00 41 1014.0
20260503202004 26 227 9.7 12.9 0.00 0.00 0.00 39 1014.1
20260503201501 26 301 4.8 6.4 0.00 0.00 0.00 42 1013.9
20260503200959 26 181 9.7 11.3 0.00 0.00 0.00 38 1014.2
20260503200455 26 227 11.3 16.1 0.00 0.00 0.00 38 1014.3
20260503195951 26 250 3.2 4.8 0.00 0.00 0.00 40 1014.2
20260503195449 26 206 8.0 12.9 0.00 0.00 0.00 38 1014.3
20260503194945 26 196 14.5 22.5 0.00 0.00 0.00 40 1014.3
20260503194442 26 186 14.5 19.3 0.00 0.00 0.00 39 1014.6
20260503193937 26 210 11.3 12.9 0.00 0.00 0.00 41 1014.5
20260503193433 26 274 1.6 1.6 0.00 0.00 0.00 41 1014.6
20260503192929 26 258 3.2 4.8 0.00 0.00 0.00 44 1014.7
20260503192426 25 102 11.3 16.1 0.00 0.00 0.00 42 1014.6
20260503191921 26 202 12.9 16.1 0.00 0.00 0.00 39 1014.8
20260503191419 26 239 12.9 17.7 0.00 0.00 0.00 40 1015.0
20260503190915 25 253 6.4 8.0 0.00 0.00 0.00 45 1015.0
20260503190413 26 210 8.0 8.0 0.00 0.00 0.00 39 1015.0
20260503185909 25 252 0.0 1.6 0.00 0.00 0.00 44 1015.0
20260503185406 25 309 6.4 8.0 0.00 0.00 0.00 45 1015.4
20260503184905 25 218 14.5 17.7 0.00 0.00 0.00 40 1015.2
20260503184402 24 334 9.7 11.3 0.00 0.00 0.00 44 1015.3
20260503183858 25 220 11.3 16.1 0.00 0.00 0.00 38 1015.4
20260503183355 24 230 4.8 6.4 0.00 0.00 0.00 44 1015.3
20260503182852 24 61 8.0 12.9 0.00 0.00 0.00 41 1015.3
20260503182351 24 251 0.0 1.6 0.00 0.00 0.00 44 1015.6
20260503181847 24 188 19.3 24.1 0.00 0.00 0.00 41 1015.6
20260503181345 25 188 14.5 17.7 0.00 0.00 0.00 42 1015.8
20260503180841 24 277 3.2 4.8 0.00 0.00 0.00 46 1015.8
20260503180339 24 221 11.3 16.1 0.00 0.00 0.00 45 1015.9
20260503175835 23 237 6.4 8.0 0.00 0.00 0.00 44 1016.1
20260503175334 24 228 14.5 16.1 0.00 0.00 0.00 42 1016.3
20260503174834 23 239 6.4 6.4 0.00 0.00 0.00 46 1016.3
20260503174334 23 270 3.2 4.8 0.00 0.00 0.00 43 1016.3
20260503173834 23 231 9.7 12.9 0.00 0.00 0.00 45 1016.4
20260503173330 23 233 4.8 6.4 0.00 0.00 0.00 45 1016.5
20260503172827 23 229 6.4 8.0 0.00 0.00 0.00 47 1016.7
20260503172325 23 200 8.0 11.3 0.00 0.00 0.00 42 1016.6
20260503171820 23 240 4.8 6.4 0.00 0.00 0.00 45 1016.6
20260503171318 23 206 1.6 4.8 0.00 0.00 0.00 46 1016.6
20260503170815 23 318 3.2 4.8 0.00 0.00 0.00 48 1016.7
20260503170311 23 229 6.4 8.0 0.00 0.00 0.00 44 1016.8
20260503150704 18 209 17.7 19.3 0.00 0.00 0.00 49 1018.0
20260503150200 18 212 1.6 4.8 0.00 0.00 0.00 53 1018.1
20260503140124 13 195 6.4 8.0 0.00 0.00 0.00 66 1018.6
20260503131053 8 123 0.0 0.0 0.00 0.00 0.00 99 1018.6
20260503130550 7 178 0.0 0.0 0.00 0.00 0.00 99 1018.8
20260503110441 1 280 0.0 0.0 0.00 0.00 0.00 98 1018.5
20260503090332 1 263 0.0 0.0 0.00 0.00 0.00 98 1018.9
20260503081300 1 302 0.0 0.0 0.00 0.00 0.00 97 1019.0
20260503080755 1 302 0.0 0.0 0.00 0.00 0.00 97 1019.3
20260503080253 2 302 0.0 0.0 0.00 0.00 0.00 97 1019.2
20260503072729 2 302 0.0 0.0 0.00 0.00 0.00 96 1019.5
20260503072226 2 302 0.0 0.0 0.00 0.00 0.00 96 1019.7
20260503071723 2 302 0.0 0.0 0.00 0.00 0.00 96 1019.7
20260503071220 2 302 0.0 0.0 0.00 0.00 0.00 96 1019.7
20260503070716 2 302 0.0 0.0 0.00 0.00 0.00 96 1019.6
20260503070215 2 302 0.0 0.0 0.00 0.00 0.00 96 1019.8